Pila Airport

Jump to: basic info | weather | runways | comments

Related pages: nearby airports | nearby navaids | notams | map

Basic information (top)

Codes: EPPI
Location: lon 53.169998, lat 16.712500, elev 259 ft / 79 m msl
Status: small_airport

Weather (top)

Current conditions for Poznań-Ławica Airport 45nm (84km) S (rec'd 2015/03/31 20:30Z):

EPPO 312030Z 26024G34KT 9999 -SHRA SCT022CB SCT022 06/02 Q0988

Airport forecast for Poznań-Ławica Airport 45nm (84km) S (rec'd 2015/03/31 18:36Z):

TAF EPPO 311730Z 3118/0118 27018G32KT 9999 BKN025 
      TEMPO 3118/0103 27025G45KT PROB40 
      TEMPO 3118/0118 5000 SHRA BKN014CB PROB30 
      TEMPO 0112/0118 3000 TSGS BKN009CB

Runways (top)

03/21: 7,876 x 195 ft (2,401 x 59 m) — other (PEM) — lighted

Latest comments (top)

No comments yet for Pila Airport

More... (top)

See also NOTAMs and nearby airports and navaids, or visit the Pila Airport page at the main OurAirports website..